Branson, MO

7:17 PM CDT on April 25, 2018 (GMT -0500)
Branson

Weather History for KBBG - September, 2013

Change the Weather History Date:

Sunday, September 15, 2013

  Actual Average (KHRO) Record (KHRO)
Temperature  
Mean Temperature 70 °F -  
Max Temperature 86 °F 77 °F 100 °F (1939)
Min Temperature 55 °F 59 °F 37 °F (1904)
Cooling Degree Days 6    
Growing Degree Days 20 (Base 50)    
Moisture  
Dew Point 53 °F    
Average Humidity 61    
Maximum Humidity 72    
Minimum Humidity 40    
Precipitation  
Precipitation 0.00 in - - ()
Sea Level Pressure  
Sea Level Pressure 30.06 in    
Wind  
Wind Speed 5 mph (SSE)    
Max Wind Speed 9 mph    
Max Gust Speed -    
Visibility 10 miles    
Events      
Averages and records for this station are not official NWS values.
T = Trace of Precipitation, MM = Missing Value Source: NWS Daily Summary

Daily Weather History Graph

Daily Weather History Graph

Search for Another Location

Airport or City:

Astronomy

Sep. 15, 2013 Rise Set
Actual Time 6:55 AM CDT 7:19 PM CDT
Civil Twilight 6:29 AM CDT 7:45 PM CDT
Nautical Twilight 5:59 AM CDT 8:15 PM CDT
Astronomical Twilight 5:28 AM CDT 8:46 PM CDT
Moon 4:43 PM CDT (9/15) 2:39 AM CDT (9/15)
Length of Visible Light 13h 16m
Length of Day
12h 24m
Waxing Gibbous, 82% of the Moon is Illuminated
Sep 15
Waxing Gibbous
Sep 19
Full
Sep 26
Last Quarter
Oct 4
New
Oct 11
First Quarter

Hourly Weather History & Observations

Time (CDT) Temp. Heat Index Dew Point Humidity Pressure Visibility Wind Dir Wind Speed Gust Speed Precip Events Conditions
12:15 AM 62.6 °F - 48.2 °F 59% 30.06 in 10.0 mi SE 9.2 mph - N/A   Clear
12:35 AM 60.8 °F - 48.2 °F 63% 30.06 in 10.0 mi SE 9.2 mph - N/A   Clear
12:55 AM 59.0 °F - 50.0 °F 72% 30.06 in 10.0 mi SE 8.1 mph - N/A   Clear
1:15 AM 59.0 °F - 48.2 °F 67% 30.05 in 10.0 mi SE 8.1 mph - N/A   Clear
1:35 AM 59.0 °F - 48.2 °F 67% 30.06 in 10.0 mi Calm Calm - N/A   Clear
1:55 AM 59.0 °F - 48.2 °F 67% 30.06 in 10.0 mi Calm Calm - N/A   Clear
2:15 AM 59.0 °F - 48.2 °F 67% 30.05 in 10.0 mi Calm Calm - N/A   Clear
2:35 AM 57.2 °F - 48.2 °F 72% 30.05 in 10.0 mi Calm Calm - N/A   Clear
2:55 AM 57.2 °F - 48.2 °F 72% 30.05 in 10.0 mi Calm Calm - N/A   Clear
3:15 AM 59.0 °F - 48.2 °F 67% 30.05 in 10.0 mi SSE 6.9 mph - N/A   Clear
3:35 AM 59.0 °F - 48.2 °F 67% 30.05 in 10.0 mi SSE 6.9 mph - N/A   Clear
3:55 AM 59.0 °F - 48.2 °F 67% 30.05 in 10.0 mi Calm Calm - N/A   Clear
4:15 AM 57.2 °F - 48.2 °F 72% 30.05 in 10.0 mi SSE 4.6 mph - N/A   Clear
4:35 AM 57.2 °F - 48.2 °F 72% 30.05 in 10.0 mi SSE 6.9 mph - N/A   Clear
4:55 AM 59.0 °F - 46.4 °F 63% 30.05 in 10.0 mi SSE 3.5 mph - N/A   Clear
5:15 AM 57.2 °F - 46.4 °F 67% 30.06 in 10.0 mi Calm Calm - N/A   Clear
5:35 AM 57.2 °F - 46.4 °F 67% 30.06 in 10.0 mi Calm Calm - N/A   Clear
5:55 AM 57.2 °F - 46.4 °F 67% 30.06 in 10.0 mi Calm Calm - N/A   Clear
6:15 AM 57.2 °F - 46.4 °F 67% 30.07 in 10.0 mi Calm Calm - N/A   Clear
6:35 AM 55.4 °F - 46.4 °F 72% 30.07 in 10.0 mi Calm Calm - N/A   Clear
6:50 AM 55.4 °F - 46.4 °F 72% 30.07 in 10.0 mi SE 5.8 mph - N/A   Partly Cloudy
7:50 AM 59.0 °F - 46.4 °F 63% 30.08 in 10.0 mi ESE 4.6 mph - N/A   Partly Cloudy
8:48 AM 64.4 °F - 51.8 °F 64% 29.77 in 10.0 mi Calm Calm - N/A   Clear
8:50 AM 64.4 °F - 48.2 °F 56% 30.09 in 10.0 mi Calm Calm - N/A   Clear
9:50 AM 68.0 °F - 50.0 °F 52% 30.10 in 10.0 mi South 4.6 mph - N/A   Partly Cloudy
10:45 AM 73.4 °F - 53.6 °F 50% 30.11 in 10.0 mi Calm Calm - N/A   Partly Cloudy
11:53 AM 78.8 °F - 55.4 °F 44% 30.10 in 10.0 mi South 5.8 mph - N/A   Partly Cloudy
12:58 PM 82.4 °F 82.0 °F 57.2 °F 42% 30.09 in 10.0 mi South 6.9 mph - N/A   Partly Cloudy
1:45 PM 84.2 °F 83.5 °F 57.2 °F 40% 30.08 in 10.0 mi SSW 5.8 mph - N/A   Mostly Cloudy
3:52 PM 86.0 °F 85.4 °F 59.0 °F 40% 30.05 in 10.0 mi SW 5.8 mph - N/A   Mostly Cloudy
4:47 PM 86.0 °F 85.4 °F 59.0 °F 40% 30.05 in 10.0 mi South 5.8 mph - N/A   Mostly Cloudy
5:48 PM 84.2 °F 83.8 °F 59.0 °F 42% 30.06 in 10.0 mi SSE 5.8 mph - N/A   Mostly Cloudy
6:50 PM 80.6 °F 81.8 °F 62.6 °F 54% 30.06 in 10.0 mi SE 6.9 mph - N/A   Mostly Cloudy
7:46 PM 78.8 °F - 60.8 °F 54% 30.06 in 10.0 mi SE 6.9 mph - N/A   Mostly Cloudy
8:46 PM 75.2 °F - 60.8 °F 61% 30.08 in 10.0 mi SSE 6.9 mph - N/A   Mostly Cloudy
9:15 PM 75.2 °F - 60.8 °F 61% 30.08 in 10.0 mi SE 8.1 mph - N/A   Clear
9:35 PM 75.2 °F - 59.0 °F 57% 30.08 in 10.0 mi SE 5.8 mph - N/A   Clear
9:55 PM 73.4 °F - 59.0 °F 61% 30.08 in 10.0 mi SE 5.8 mph - N/A   Clear
10:15 PM 73.4 °F - 59.0 °F 61% 30.09 in 10.0 mi SSE 4.6 mph - N/A   Partly Cloudy
10:35 PM 73.4 °F - 59.0 °F 61% 30.08 in 10.0 mi SSE 5.8 mph - N/A   Clear
10:55 PM 73.4 °F - 60.8 °F 65% 30.09 in 10.0 mi South 4.6 mph - N/A   Clear
11:15 PM 73.4 °F - 60.8 °F 65% 30.09 in 10.0 mi South 4.6 mph - N/A   Clear
11:35 PM 71.6 °F - 60.8 °F 69% 30.09 in 10.0 mi South 5.8 mph - N/A   Clear
11:55 PM 71.6 °F - 60.8 °F 69% 30.09 in 10.0 mi South 3.5 mph - N/A   Clear